CZ-3A R/B, 43492

Orbit data source: Space-Track

CZ-3A R/B, 43492 is space debris in HEO originally from a launch on Tue, 05 Jun 2018 UTC launched from the Xichang Space Center, China (XSC). Debris objects in space refer to the collection of defunct objects orbiting the Earth. Examples of debris include non-operational satellites, rocket bodies, and fragments generated from explosions, collisions, or faulty payload assembly.

Loading next visibility...
CZ-3A R/B details
Identifier
43492, 2018-050B
Orbit
HEO
Last TLE update2 days ago
Origin
Flag of CNCASC (CN / PRC)
ManufacturerCALT
MissionSpacecraft
Bus & MotorCZ-3A STAGE 3, Unknown motor
Mass~2,800 kg wet, ~2,800 kg dry
Launch date (UTC)
2018-06-05 (7 years ago)
Launch vehicleUnknown
Launch site
Xichang Space Center, China (XSC)
Object type
Payload
Rocket body
Debris
Shape & HBRCyl + 1 Nozzle, 12.38 m
Radar Cross Section32.704 m², Large (>1 m²)

Expand to show TLE details & history

TLE from 2 days ago
0 CZ-3A R/B
1 43492U 18050B   24359.85364674  .00000671  00000-0  89374-3 0  9990
2 43492  24.3821 283.3433 7239573 249.9060  23.9892  2.28164336 53811
Epoch: 2024-12-24T20:29Z
Definitive object data (Epoch: 2024-12-24T20:29:15.078Z)
Latitude0.00039°
Longitude-117.78254°
Altitude9,114.258 km
Speed5.925 km/s
True Right ascension18h 53m 32s
True Declination0° 00' 01"
Sunlit
Object was in daylight at TLE epoch
Visualization TLE readout
Latitude24.35824°
Longitude-32.43483°
Altitude32,007.977 km
Speed2.101 km/s
Apparent Right ascension00h 15m 30s
Apparent Declination16° 51' 44"
Sunlit
Object is in daylight
Visualization observer readout
Local Sidereal Time09:46:43
Azimuth320.889° NNW
Elevation-23.488°
Doppler factor1
Orbital elements
Apogee altitude35,646.417 km
Perigee altitude350.899 km
Semi-major axis24,376.795 km
Eccentricity0.7239573
Inclination24.3821°
RAAN283.3433°
Arg. of periapsis249.906°
True anomaly110.39958°
Mean anomaly23.9892°
Eccentric anomaly59.86139°
Mean motion0.57027 °/min
BSTAR0.00089374
Orbital period631.28 mins
Loading maneuver chart data...
Loading historical data...
Loading historical data...
Loading historical data...
Loading historical data...
Loading historical data...
Loading historical data...
Loading historical data...
Other satellites on launch #50 in the year 2018 (2018-06-05 UTC)

CZ-3A R/B Visibility forecast

Observer location: undefined°, undefined

Span
Click to sort rows by Start time (UTC) header in descending order
Start Az.
Max El. time (UTC)
Max El. Az.
Max El.
End time (UTC)
End Az.
324 mins2024-12-26 17:54:32.270Z77.937° E2024-12-26 21:39:32.270Z87.376° E24.718°2024-12-26 23:18:32.270Z86.846° E
227 mins2024-12-27 01:59:32.270Z266.297° W2024-12-27 03:20:32.270Z272.582° WNW16.529°2024-12-27 05:46:32.270Z284.946° WNW
|